Weather in Zarechye

Russia / Ryazan Oblast     54°17′56″N   40°13′43″E
temp.,
°C
wind,
m/s
gust,
m/s
humid.,
%
clouds,
%
prec.,
mm/h
press.,
hPa
HPBL,
m
1 march, mon
mon100:00−9n229785 0.1 102021
03:00−11n229786 0.1 102221
06:00−13nnw229746 0.0 102420
09:00−11nnw119533 0.0 102545
12:00−6w239129 0.0 1025240
15:00−3wsw479353 0.0 1024356
18:00−2w6109397 0.0 1022620
21:00−2wsw5119298 0.1 1020448
2 march, tue
tue200:000wsw61293100 0.0 1017503
03:00+1wsw61292100 0.0 1015542
06:00+1wsw61394100 0.0 1011566
09:00+1w61298100 0.1 1010537
12:00+1wnw612100100 0.1 1008585
15:00+1wnw5119697 0.2 1008586
18:00−2nw4118863 0.0 1008245
21:00−1nw4118781 0.1 1009520
3 march, wed
wed300:00−3nw5129499 0.1 1009383
03:00−3nw7139399 0.2 1010626
06:00−5nw6129294 0.1 1011528
09:00−6nnw7139089 0.1 1014747
12:00−4nw71185100 0.0 1015782
15:00−2nw6108668 0.0 1015938
18:00−2wnw41192100 0.1 1014634
21:00−3w5129498 0.1 1015448
4 march, thu
thu400:00−3w51292100 0.1 1013430
03:00−3w5139093 0.1 1012449
06:00−4sw6139099 0.0 1009427
09:00−1sw81589100 0.0 1006530
12:00+1wsw91588100 0.0 1003937
15:00+1wsw81485100 0.0 10011089
18:00+1wsw81587100 0.0 999949
21:000w81597100 0.1 999828
5 march, fri
fri500:00−2nw5118698 0.2 1001439
03:00−6nw489378 0.2 1004148
06:00−9nw349519 0.0 100742
09:00−7nw239518 0.0 100988
12:00−4nw23887 0.0 1011303
15:00−3wnw228544 0.0 1012377
18:00−6w1290100 0.0 101321
21:00−7nne008997 0.0 101421